{"data":{"norad_id":64559,"intl_designator":"2025-135AH","name":"PADRE","alt_names":[],"object_type":"PAYLOAD","status":"ACTIVE","operator":null,"country":"US","launch_date":"2025-06-23","launch_site_code":"AFWTR","launch_vehicle":null,"mission":null,"orbit_class":"UNKNOWN","rcs_meters":null,"size_class":null,"mass_kg":null,"dimensions":null,"purposes":[],"wikipedia_slug":null,"has_3d_model":false,"image_url":null,"decayed_at":null,"tle_current":{"epoch":"2026-09-21T21:07:41.980800Z","epoch_age_seconds":62544,"freshness":"FRESH","line1":"1 64559U 25135AH  26264.88034700  .00001009  00000+0  10312-3 0  9994","line2":"2 64559  97.7798  17.3527 0000941 353.4098   6.7109 14.92744861 68271","mean_motion":14.92744861,"eccentricity":9.41e-5,"inclination_deg":97.7798,"raan_deg":17.3527,"arg_perigee_deg":353.4098,"mean_anomaly_deg":6.7109,"bstar":0.00010312,"rev_number":6827,"period_min":96.466585658539,"perigee_km":588.72565843133,"apogee_km":590.03694537575,"semimajor_km":6967.5183019035,"source":"CELESTRAK","updated_at":"2026-09-22T09:00:29.847243Z"}}}